Wind_Speed
22 25 20 19 27 16 6 9 9 16 18 14 15 14 15 13 12 9 9 10 12 14 15 15 16 15 18 21 22 23 26 27 29 29 26 27 29 31 27 23 19 5 6
28 23 24 23 26 15 9 11 12 18 20 18 17 16 14 12 12 10 8 9 10 12 13 12 12 14 16 19 20 22 23 25 26 30 29 29 28 29 30 26 29 18 5
30 20 18 27 20 12 13 15 15 21 21 23 20 18 15 15 13 10 9 8 8 7 10 12 10 10 12 15 17 20 22 23 23 26 30 32 31 30 31 33 31 32 22
33 27 21 24 18 15 16 18 18 23 24 23 23 21 17 16 12 10 8 7 7 5 6 6 7 7 10 12 16 18 20 23 23 23 25 28 32 31 31 31 35 36 35
33 30 23 33 20 17 18 19 19 23 27 25 27 23 21 17 13 9 8 7 6 5 5 4 4 5 5 8 13 17 17 20 21 21 21 24 28 30 33 31 30 35 37
35 28 30 28 18 20 20 20 21 23 29 29 28 28 24 20 16 12 9 7 5 5 2 0 1 3 4 7 10 14 16 16 18 19 20 21 25 27 30 32 31 33 34
37 37 35 21 18 23 20 18 19 19 27 32 31 31 27 24 20 17 12 10 6 5 5 3 2 1 1 3 7 10 13 15 14 17 19 20 22 23 25 27 31 32 31
39 38 36 28 21 25 19 19 20 20 24 28 33 33 32 28 24 21 16 11 8 8 7 6 5 5 5 3 5 6 10 14 12 13 17 18 21 21 21 23 26 27 29
42 37 39 27 22 29 20 19 21 21 20 25 29 32 33 31 28 25 21 17 12 11 10 8 7 6 6 5 4 6 8 9 10 9 13 16 18 20 18 19 21 22 24
44 41 37 27 26 30 27 23 21 23 22 25 25 29 30 32 31 28 24 21 18 17 14 13 12 9 10 7 6 6 8 10 11 9 8 11 14 17 18 19 19 20 21
47 42 34 29 30 30 28 24 23 21 24 25 25 29 32 31 33 32 29 26 23 22 19 18 16 13 11 10 9 8 8 9 10 10 8 9 11 12 14 16 17 19 20
55 45 44 35 36 33 34 30 29 25 24 23 25 23 30 32 31 32 32 31 28 26 25 22 20 18 15 14 12 11 9 10 11 11 10 10 11 13 13 14 16 16 17
60 54 50 39 39 35 34 33 31 27 25 25 23 24 26 33 35 34 32 31 31 30 29 26 23 23 21 18 17 17 15 13 13 12 13 13 12 13 15 16 17 18 20
56 57 53 55 46 41 37 35 33 31 29 26 26 27 25 25 29 30 32 32 30 29 29 27 25 25 24 23 21 21 20 17 16 16 15 15 15 15 16 18 21 22 23
60 65 62 62 53 46 41 38 35 36 35 33 30 27 25 23 22 27 28 29 31 31 30 29 26 25 23 24 24 22 21 20 19 19 19 18 18 18 17 18 20 20 21
69 72 66 68 62 54 49 42 42 40 39 40 37 31 30 28 29 26 25 24 24 23 24 24 23 23 21 21 23 24 22 22 23 22 23 22 22 22 21 22 22 21 23
74 75 72 66 62 62 57 47 49 46 42 39 41 37 33 33 31 29 27 27 27 25 24 24 25 25 24 24 25 26 26 26 25 25 25 25 24 25 26 26 26 25 25
80 79 76 70 65 66 64 60 55 47 42 45 45 44 37 36 36 32 31 29 30 30 28 26 24 23 23 21 24 26 27 26 26 26 27 27 28 30 30 27 25 25 27
91 88 82 78 73 70 65 66 59 53 50 47 52 50 47 39 41 39 33 26 23 22 26 26 24 23 23 23 23 25 28 28 27 26 27 27 27 28 26 24 23 23 22
101 96 91 86 80 75 56 68 69 60 57 53 54 56 55 45 45 45 37 30 26 25 21 22 24 24 23 22 22 24 26 26 24 25 28 27 25 25 25 25 25 25 21
107 103 98 94 87 79 62 70 75 68 62 61 57 55 55 51 47 43 39 35 31 29 27 25 24 25 24 23 24 25 25 27 25 25 27 27 27 27 28 28 27 25 25
113 109 105 102 96 94 85 73 69 69 58 49 57 53 54 53 55 50 41 40 35 32 32 28 28 29 27 27 27 27 29 28 29 30 28 29 28 29 28 30 29 26 26
113 116 110 106 101 98 93 82 75 68 66 58 52 56 50 52 53 52 56 43 40 37 36 34 33 34 32 30 30 29 30 30 30 28 28 30 29 30 30 30 28 27 25
118 116 115 110 105 103 96 90 85 77 67 71 67 66 59 59 57 60 51 48 43 43 40 37 36 36 35 36 36 34 32 32 32 31 27 29 30 30 33 31 32 31 25
123 122 118 117 109 108 103 97 93 86 74 61 74 72 69 64 61 60 56 57 50 46 44 42 40 40 39 40 39 38 36 36 37 35 33 32 30 31 31 32 34 33 27
127 128 124 120 116 116 111 102 101 94 91 85 73 74 67 63 67 65 57 59 54 51 49 45 44 43 43 43 43 41 40 39 38 37 37 36 33 33 34 34 34 32 34
Wind_Direction
257 276 295 295 311 305 254 222 207 186 185 192 177 160 151 147 156 162 132 108 98 88 76 74 85 83 75 68 61 58 61 56 50 45 46 45 40 42 43 46 52 102 156
257 279 285 289 300 277 213 221 210 186 181 188 188 163 155 153 158 164 142 123 114 92 76 76 81 74 74 66 58 57 57 57 54 50 44 45 44 40 43 47 49 54 90
259 273 286 286 279 247 207 212 205 191 184 187 195 173 167 165 166 166 155 143 125 102 78 60 78 75 71 62 58 54 54 54 56 56 49 47 47 44 42 48 52 55 57
263 269 270 292 253 226 214 214 205 199 187 192 188 185 178 169 169 175 177 152 139 134 98 87 75 67 60 48 49 47 48 52 52 55 52 46 47 46 49 51 55 52 53
265 270 260 276 240 219 219 211 206 203 190 194 193 190 189 183 176 178 182 174 165 159 105 96 93 81 66 34 35 42 42 48 48 51 52 51 48 48 49 51 54 53 52
255 251 252 262 229 223 222 212 206 209 204 192 197 195 193 189 188 188 191 181 174 179 146 196 131 81 48 33 31 36 42 45 45 46 50 49 53 46 48 52 53 56 56
226 226 231 251 233 233 226 207 208 211 218 204 199 198 197 196 194 191 184 191 201 188 228 261 234 241 5 9 29 28 35 39 37 39 44 46 46 47 45 48 53 54 56
215 222 228 241 244 225 227 210 198 204 217 217 205 205 200 200 199 196 190 193 203 211 227 240 261 265 265 313 8 8 23 36 25 36 40 43 42 43 49 44 50 51 56
220 221 230 229 224 215 223 249 217 206 213 219 214 209 206 205 205 205 201 201 207 223 232 244 259 275 277 291 306 332 355 19 28 35 40 39 41 42 43 44 41 48 48
214 211 216 215 215 217 195 230 228 214 206 214 214 216 212 211 212 210 211 212 213 221 228 238 249 259 275 290 296 302 324 349 9 21 22 34 32 31 34 36 33 32 34
205 212 218 216 216 215 215 201 212 230 218 215 214 212 214 212 216 215 215 218 221 224 230 238 245 255 267 280 293 301 305 324 336 356 359 357 9 12 13 18 24 25 27
207 216 223 212 213 212 216 213 206 208 229 224 214 217 215 213 217 218 222 225 224 225 232 237 245 252 260 267 279 286 299 301 308 319 335 340 339 336 344 355 358 4 7
212 214 217 213 214 214 217 221 217 209 208 222 222 215 211 215 216 221 224 228 231 235 235 239 248 254 260 271 277 283 289 292 297 299 304 313 320 326 331 335 340 346 345
212 205 208 207 211 214 213 228 226 220 216 212 219 224 224 219 223 223 227 231 236 239 245 250 256 259 265 270 275 282 286 286 287 292 296 300 303 303 308 314 318 323 327
211 206 205 211 213 209 215 216 224 224 231 223 214 219 230 224 214 221 224 231 234 241 245 252 258 262 267 270 273 276 282 287 290 291 294 297 300 301 303 306 309 316 320
211 205 203 211 218 211 217 218 217 228 227 232 228 220 226 233 222 217 219 223 233 240 250 251 252 254 260 263 266 275 280 284 291 295 296 296 297 298 300 303 306 312 314
209 207 211 220 217 216 216 220 216 218 227 239 245 236 222 232 228 223 219 221 221 224 234 243 251 257 262 268 274 279 284 286 290 292 292 293 296 299 301 302 306 308 308
205 208 213 217 211 214 217 219 220 224 230 242 236 245 234 226 233 231 227 228 232 229 229 234 240 251 258 265 273 279 281 285 288 289 290 291 291 294 299 300 306 308 310
203 206 211 213 213 210 216 216 222 227 227 230 239 233 233 227 239 240 241 239 242 242 238 239 240 242 250 259 264 270 277 280 283 289 290 289 291 292 294 298 304 307 314
203 207 206 211 213 209 215 218 222 223 220 222 233 234 234 231 229 240 246 243 243 242 244 248 255 259 261 264 269 271 277 283 286 284 284 286 290 287 289 294 296 300 302
202 205 205 208 209 206 205 214 219 222 226 226 227 232 231 233 231 234 241 243 241 246 248 251 259 264 264 266 273 278 284 288 292 288 288 291 292 290 293 297 300 305 306
206 202 204 203 208 209 208 211 215 217 217 221 227 226 228 242 231 235 234 241 244 245 248 250 256 262 264 270 277 281 284 290 294 293 292 292 293 293 298 297 298 301 298
209 204 206 203 206 212 212 209 211 211 209 222 225 216 220 237 234 246 254 236 243 246 247 247 252 258 262 267 272 276 280 285 291 297 298 298 303 300 293 293 298 297 297
211 211 208 205 206 210 211 211 213 211 213 225 216 222 225 229 240 243 239 241 239 244 247 249 252 256 260 263 266 272 279 283 286 292 303 301 300 295 293 295 294 291 292
212 212 213 209 205 209 213 210 212 207 204 215 212 215 217 231 230 236 233 239 233 240 245 248 253 256 259 262 268 272 276 281 285 291 296 294 297 295 290 289 293 289 294
212 210 212 211 209 207 212 211 210 206 209 216 215 219 218 226 225 232 232 229 231 237 242 248 253 258 262 265 268 272 276 281 284 286 285 287 294 296 295 288 288 291 292
Height
11004 11004 11004 11005 11004 11005 11003 11002 11003 11005 11008 11010 11010 11011 11012 11016 11019 11020 11019 11020 11020 11020 11019 11019 11018 11017 11015 11012 11010 11008 11005 11001 10998 10993 10989 10984 10979 10975 10972 10969 10964 10961 10962
10999 10999 11000 10998 10998 11001 10999 10999 11001 11003 11005 11008 11011 11011 11012 11015 11018 11019 11019 11021 11022 11023 11023 11022 11020 11019 11018 11016 11014 11011 11009 11005 11002 10998 10993 10988 10984 10980 10977 10971 10967 10963 10962
10992 10995 10994 10996 10992 10994 10995 10996 10998 11001 11003 11006 11009 11011 11013 11016 11019 11019 11020 11023 11024 11024 11025 11025 11023 11022 11022 11020 11018 11016 11013 11010 11006 11002 10998 10993 10989 10985 10980 10975 10971 10968 10964
10984 10988 10989 10990 10989 10989 10991 10992 10994 10996 10999 11003 11007 11009 11012 11015 11017 11019 11022 11023 11024 11025 11025 11027 11025 11024 11023 11023 11022 11019 11015 11012 11009 11005 11002 10999 10994 10990 10985 10981 10977 10974 10969
10979 10980 10983 10987 10986 10986 10989 10990 10992 10994 10996 11000 11004 11007 11010 11013 11015 11018 11021 11022 11023 11024 11025 11026 11026 11025 11025 11024 11024 11021 11018 11015 11013 11010 11008 11004 10999 10995 10990 10986 10984 10980 10976
10974 10978 10980 10982 10982 10983 10985 10988 10991 10993 10994 10997 11000 11004 11008 11010 11012 11016 11019 11021 11022 11022 11025 11027 11027 11026 11025 11025 11025 11022 11021 11019 11016 11015 11012 11008 11003 11000 10996 10993 10990 10985 10984
10967 10970 10975 10977 10977 10982 10984 10986 10990 10991 10993 10995 10997 11000 11004 11008 11010 11014 11017 11019 11022 11023 11025 11027 11027 11028 11027 11026 11025 11024 11023 11021 11019 11018 11014 11011 11007 11005 11002 10999 10995 10992 10989
10957 10961 10971 10974 10974 10979 10983 10986 10987 10988 10990 10993 10995 10997 11001 11005 11008 11011 11015 11018 11020 11023 11025 11026 11027 11028 11027 11026 11026 11025 11024 11023 11021 11019 11017 11015 11012 11009 11007 11004 10999 10998 10996
10947 10957 10964 10969 10969 10975 10980 10986 10987 10986 10987 10991 10993 10994 10998 11002 11006 11008 11012 11015 11017 11021 11023 11025 11026 11026 11026 11026 11026 11025 11025 11024 11023 11021 11019 11017 11015 11013 11011 11009 11006 11003 11000
10944 10952 10956 10961 10966 10971 10969 10980 10984 10983 10984 10986 10989 10991 10996 11000 11002 11005 11008 11012 11015 11018 11020 11022 11023 11024 11025 11025 11025 11025 11025 11025 11024 11022 11021 11019 11017 11016 11014 11012 11010 11007 11005
10940 10946 10953 10958 10962 10964 10968 10968 10976 10981 10981 10984 10985 10987 10990 10995 10998 11002 11005 11009 11012 11015 11017 11018 11020 11022 11023 11024 11025 11025 11025 11025 11024 11023 11022 11020 11019 11017 11015 11014 11011 11009 11007
10933 10939 10944 10949 10955 10957 10961 10962 10966 10972 10978 10981 10983 10985 10986 10990 10994 10998 11001 11004 11008 11011 11013 11015 11016 11017 11020 11022 11023 11025 11025 11024 11024 11023 11022 11020 11019 11017 11015 11013 11011 11009 11008
10917 10929 10940 10947 10951 10954 10955 10957 10960 10965 10970 10976 10979 10981 10982 10984 10988 10992 10996 10999 11003 11006 11009 11012 11014 11015 11017 11019 11021 11022 11023 11023 11022 11021 11021 11019 11018 11016 11014 11012 11011 11009 11007
10915 10923 10932 10934 10938 10943 10946 10955 10956 10960 10965 10967 10972 10976 10978 10980 10984 10988 10992 10995 10998 11002 11004 11008 11011 11013 11014 11017 11018 11018 11019 11020 11019 11018 11017 11017 11016 11015 11013 11011 11009 11008 11006
10901 10906 10917 10918 10928 10930 10937 10943 10949 10954 10962 10963 10965 10969 10975 10977 10979 10982 10986 10991 10994 10997 11001 11002 11005 11008 11010 11012 11013 11015 11016 11016 11017 11015 11014 11013 11013 11012 11011 11009 11007 11005 11003
10886 10894 10906 10905 10913 10920 10928 10934 10942 10947 10952 10957 10959 10963 10969 10973 10973 10976 10980 10985 10988 10992 10994 10998 11001 11003 11006 11008 11009 11010 11011 11012 11012 11012 11011 11009 11008 11007 11006 11004 11002 11001 10999
10874 10885 10889 10895 10909 10913 10920 10928 10935 10940 10945 10954 10960 10958 10960 10967 10969 10971 10974 10977 10981 10985 10988 10991 10994 10997 10999 11002 11003 11004 11005 11006 11008 11008 11006 11005 11004 11002 11001 10999 10996 10995 10993
10854 10869 10875 10881 10889 10899 10910 10921 10927 10933 10938 10943 10951 10954 10955 10957 10966 10967 10968 10971 10975 10978 10982 10985 10988 10991 10993 10996 10998 10999 10999 11000 11002 11002 11001 11000 10999 10997 10995 10993 10992 10989 10987
10834 10846 10856 10866 10872 10886 10897 10908 10914 10923 10928 10933 10939 10941 10946 10950 10958 10962 10963 10966 10970 10973 10976 10980 10983 10985 10988 10990 10991 10992 10992 10993 10995 10995 10994 10994 10993 10992 10990 10988 10986 10984 10983
10809 10823 10836 10847 10858 10874 10882 10887 10897 10906 10912 10918 10925 10929 10938 10940 10945 10954 10959 10961 10964 10967 10971 10974 10976 10979 10981 10983 10984 10985 10985 10986 10987 10988 10986 10986 10987 10986 10984 10982 10980 10978 10978
10785 10799 10815 10830 10841 10854 10860 10872 10884 10892 10899 10907 10914 10920 10926 10931 10937 10945 10951 10954 10957 10960 10964 10968 10971 10973 10975 10977 10978 10978 10979 10979 10981 10981 10979 10979 10980 10980 10978 10975 10974 10973 10971
10759 10776 10791 10807 10818 10831 10841 10855 10866 10880 10891 10895 10900 10906 10916 10922 10928 10935 10941 10946 10950 10953 10957 10959 10962 10965 10968 10970 10972 10973 10972 10973 10974 10973 10974 10972 10972 10972 10972 10969 10967 10966 10964
10736 10754 10771 10788 10800 10811 10826 10840 10851 10867 10879 10887 10890 10896 10902 10911 10921 10926 10933 10937 10941 10946 10950 10951 10953 10957 10960 10962 10964 10966 10966 10966 10966 10966 10967 10966 10966 10965 10963 10962 10961 10960 10959
10717 10733 10751 10771 10787 10800 10813 10826 10837 10854 10862 10864 10875 10884 10894 10901 10908 10914 10923 10928 10933 10937 10940 10943 10945 10949 10952 10953 10955 10956 10959 10960 10959 10957 10961 10960 10959 10958 10957 10956 10954 10953 10952
10690 10705 10726 10749 10768 10779 10793 10809 10820 10834 10843 10848 10863 10870 10879 10887 10892 10898 10905 10917 10922 10926 10931 10933 10936 10939 10941 10943 10947 10949 10950 10951 10951 10951 10952 10951 10951 10951 10950 10948 10947 10945 10944
10655 10678 10701 10723 10741 10756 10769 10789 10802 10813 10824 10837 10849 10858 10867 10871 10882 10887 10892 10904 10911 10914 10918 10923 10925 10929 10931 10934 10937 10939 10940 10942 10942 10945 10944 10943 10944 10943 10942 10940 10937 10935 10934